Location: Fort Collins
(40.5850°N, 105.0840°W)
Time: 07:07:37
(UTC-06:00)

Daily predictions for brighter satellites

Satellite Brightness Start Highest point End
(mag) Time Altitude Azimuth Time Altitude Azimuth Time Altitude Azimuth
FengYun 1-2 T 4.4 19:52:40 10° SSE 19:58:12 62° ENE 20:03:43 10° N
Cosmos 2082 3.7 19:52:35 10° NNW 19:58:14 87° ENE 20:03:52 10° SSE
Meteor 2-15 Rocket 4.4 19:52:32 10° N 19:58:36 71° E 20:04:37 10° SSE
Cosmos 1821 Rocket 4.1 19:53:05 10° S 19:59:10 82° W 20:05:17 10° N
Cosmos 220 Rocket 4.1 19:55:11 10° N 19:59:20 52° ENE 20:03:25 10° SE
Cosmos 1892 Rocket 4.0 19:56:52 10° NNW 20:01:20 69° W 20:05:46 10° S
Cosmos 1605 Rocket 4.1 19:56:19 10° S 20:02:32 61° E 20:08:40 10° NNE
Cosmos 1455 Rocket 3.0 19:58:15 10° S 20:02:34 86° E 20:06:57 10° N
ALOS 2.6 20:00:23 10° SE 20:04:50 46° ENE 20:09:19 10° N
Meteor 1-5 Rocket 4.3 20:00:43 10° SSW 20:06:04 80° W 20:11:37 10° N
OAO 2 Rocket 3.9 20:02:57 10° WSW 20:07:40 45° S 20:12:28 10° ESE
Okean 2 4.0 20:04:18 10° NNW 20:08:25 63° W 20:12:29 10° S
Cosmos 1602 Rocket 3.8 20:04:45 10° N 20:09:04 48° E 20:13:19 10° SSE
Cosmos 1346 Rocket 3.3 20:08:39 10° NNW 20:12:35 63° W 20:16:32 10° S
ERS-1 Rocket 4.3 20:09:15 10° ESE 20:12:59 21° ENE 20:16:43 10° NNE
Helios 1B rocket 3.1 20:09:46 10° N 20:13:50 59° WNW 20:17:51 10° SSW
BREEZE-M DEB (TANK) 3.5 20:13:01 10° NNW 20:14:34 17° NNE 20:16:40 10° ENE
Meteor 1-12 Rocket 4.3 20:12:44 10° S 20:18:26 72° E 20:24:18 10° NNE
Tiangong 1 1.0 20:15:57 10° WNW 20:19:04 83° NNE 20:21:38 14° ESE
Cosmos 1763 Rocket 4.3 20:20:04 10° SSE 20:24:18 27° E 20:28:30 10° NE
Cosmos 1743 3.9 20:21:27 10° SE 20:24:35 23° E 20:27:43 10° NE
Resurs 1-3 4.1 20:20:31 10° S 20:24:50 63° WSW 20:29:12 10° NNW
Cosmos 2150 Rocket 4.0 20:21:07 10° NNW 20:26:13 61° ENE 20:31:19 10° SSE
Cosmos 1697 Rocket 2.6 20:22:38 10° SSW 20:28:13 68° ESE 20:33:49 10° NNE
Cosmos 2061 Rocket 4.5 20:25:05 10° SSE 20:30:51 39° E 20:36:34 10° NNE
Cosmos 2123 Rocket 4.4 20:27:47 10° NNW 20:33:54 65° W 20:39:59 10° S
Cosmos 1066 Rocket 4.3 20:30:41 10° N 20:36:20 60° ENE 20:42:03 10° SSE
Cosmos 1898 Rocket 3.5 20:31:02 10° NNW 20:36:21 80° ENE 20:41:34 10° SSE
Cosmos 1459 Rocket 4.2 20:31:50 10° SSE 20:37:32 45° E 20:43:18 10° NNE
Cosmos 1606 Rocket 4.4 20:38:26 14° SE 20:41:32 29° E 20:45:22 10° NNE
Cosmos 2058 Rocket 4.5 20:40:58 19° E 20:41:45 19° E 20:44:57 10° NE
SL-16 R/B 3.4 20:41:43 18° ESE 20:42:41 19° E 20:46:30 10° ENE
Cosmos 468 Rocket 3.9 20:40:03 10° SSW 20:45:10 88° WNW 20:50:20 10° NNE
Cosmos 841 Rocket 3.8 20:44:37 10° S 20:49:30 41° ESE 20:54:22 10° NNE
RESURS DK-1 2.3 20:47:08 10° NNW 20:51:18 87° ENE 20:54:07 20° SSE
DELTA 2 R/B (1) 4.5 20:46:43 10° W 20:51:50 38° SSW 20:55:21 18° SSE
Cosmos 1980 Rocket 2.1 20:47:06 10° S 20:52:42 66° ESE 20:58:21 10° NNE
H-2A R/B 3.3 20:49:43 10° S 20:53:33 59° W 20:57:27 10° NNW
Resurs 01 Rocket 4.0 20:50:53 10° SSW 20:54:24 23° W 20:57:58 10° NW
Cosmos 1814 Rocket 4.1 20:53:51 10° SSW 20:59:11 80° WNW 21:04:30 10° NNE
FENGYUN 3A 4.4 20:56:36 10° S 21:01:47 52° W 21:07:01 10° NNW
Cosmos 1842 4.3 20:59:49 10° NNE 21:03:11 27° ENE 21:03:13 27° ENE
Cosmos 1726 Rocket 3.9 21:01:45 26° SE 21:03:40 43° E 21:07:51 10° NNE
Cosmos 1666 3.6 21:04:41 29° ENE 21:04:41 29° ENE 21:07:34 10° NNE
YAOGAN 6 4.5 21:05:28 18° ENE 21:05:28 18° ENE 21:07:32 10° NNE
Cosmos 2263 Rocket 3.5 21:12:46 10° N 21:17:05 23° NE 21:18:16 21° ENE
Iridium 4 Rocket 4.4 21:13:02 10° NNW 21:17:40 44° W 21:21:54 10° SSW
Lacrosse 5 2.6 21:13:44 10° NW 21:18:34 47° SW 21:21:08 25° S
Cosmos 1825 Rocket 3.5 21:14:47 10° N 21:19:13 87° W 21:21:22 30° S
SL-08 R/B 4.5 21:14:23 16° SSE 21:19:19 58° E 21:25:20 10° NNE
Cosmos 1340 2.6 21:17:38 10° N 21:21:27 87° W 21:22:27 48° S
Cosmos 1802 Rocket 4.0 21:17:54 10° S 21:24:18 89° WNW 21:30:47 10° N
SJ-11-01 4.4 21:22:35 24° S 21:25:23 72° WSW 21:30:04 10° NNW
SWAS 4.3 21:23:00 10° SSW 21:27:17 77° ESE 21:31:37 10° NNE
Cosmos 2322 Rocket 2.3 21:25:06 29° SSE 21:27:34 49° ESE 21:32:57 10° NE
SPOT 5 3.1 21:27:02 44° ESE 21:27:52 49° ENE 21:32:26 10° N
USA 186 4.4 21:26:13 10° SW 21:28:10 16° W 21:30:03 10° NW
Cosmos 2016 Rocket 3.9 21:22:44 10° S 21:28:52 84° E 21:35:06 10° N
Cosmos 1953 Rocket 3.5 21:27:06 10° N 21:31:34 88° W 21:32:54 46° S
Cosmos 2228 3.7 21:32:39 37° NE 21:32:39 37° NE 21:35:44 10° NNE
Envisat 2.9 21:29:51 36° SSE 21:32:00 90° E 21:37:06 10° NNW
H-2A R/B 1.9 21:32:10 62° E 21:32:19 62° ENE 21:36:26 10° N
MetOp-A 4.3 21:33:26 46° ESE 21:34:31 54° ENE 21:39:44 10° N
CZ-4 DEB 4.0 21:36:07 34° WSW 21:36:33 36° W 21:39:30 10° NNW
Nimbus 7 Rocket 4.3 21:35:16 10° NNE 21:41:20 74° ESE 21:45:06 25° S
Terra 3.9 21:42:37 14° NE 21:42:37 14° NE 21:44:13 10° NNE
Meteor 2-9 Rocket 4.0 21:39:17 35° S 21:41:41 78° E 21:47:04 10° NNE
Cosmos 1375 Rocket 4.4 21:39:27 10° SSW 21:45:58 74° ESE 21:52:34 10° NE
Meteor 1-15 Rocket 4.2 21:44:38 38° S 21:47:00 76° E 21:52:51 10° NNE
Cosmos 1758 Rocket 3.8 21:45:30 10° NNW 21:49:47 63° W 21:50:24 56° SW
ERS-1 Rocket 3.9 21:48:48 24° SSW 21:51:26 45° W 21:56:15 10° NNW
OAO 2 Rocket 4.4 21:47:35 10° WSW 21:51:31 31° SSW 21:51:31 31° SSW
Cosmos 405 Rocket 4.5 21:49:26 10° N 21:51:07 23° NNE 21:51:07 23° NNE
Tiangong 1 3.8 21:52:47 10° W 21:53:36 15° WSW 21:53:36 15° WSW
Cosmos 1864 Rocket 4.3 21:54:58 36° S 21:57:41 88° W 22:03:50 10° N
Cosmos 1939 Rocket 4.3 21:59:13 31° SW 22:00:11 35° W 22:04:02 10° NNW
deb Chang Zheng 4 4.1 21:59:03 10° N 22:03:27 59° WNW 22:04:11 51° WSW
H-2A R/B 3.3 22:06:08 27° NE 22:06:08 27° NE 22:09:07 10° N
Meteor 2-17 Rocket 4.2 22:08:20 73° SE 22:08:41 75° E 22:14:43 10° N
Tsikada Rocket 4.1 22:07:11 10° NNW 22:13:35 72° W 22:15:15 50° SSW
ARGOS 3.2 22:20:35 74° N 22:20:35 74° N 22:25:32 10° NNW
SPOT 1/Viking Rocket 3.7 22:24:49 71° NW 22:24:49 71° NW 22:29:29 10° NNW
Cosmos 1125 Rocket 4.0 22:19:33 10° NNW 22:24:34 51° WSW 22:24:34 51° WSW
NOAA 11 4.2 22:26:06 76° NNW 22:26:06 76° NNW 22:31:10 10° NNW
USA 215 4.1 22:24:23 34° ENE 22:26:00 39° NNE 22:31:57 10° NW
SL-16 R/B 2.6 22:23:21 28° SW 22:26:15 59° WNW 22:31:52 10° NNE
Cosmos 540 Rocket 4.1 22:35:33 53° NW 22:35:33 53° NW 22:40:18 10° N
BREEZE-M DEB (TANK) 4.3 22:06:34 10° WNW 22:36:57 80° NNE 22:38:36 61° E
Cosmos 2360 Rocket 3.7 22:40:15 26° NE 22:40:15 26° NE 22:42:40 10° NNE
BREEZE-M DEB (TANK) 3.7 22:20:53 10° WNW 22:37:29 80° NNE 22:37:49 77° ENE
Cosmos 2233 Rocket 4.5 22:51:25 51° W 22:52:02 53° W 22:58:08 10° N
Cosmos 2263 Rocket 3.1 22:55:57 10° NNW 22:59:58 43° WNW 22:59:58 43° WNW
Cosmos 2322 Rocket 4.1 23:07:19 10° WSW 23:11:52 25° NW 23:16:27 10° N
Terra 3.9 23:21:31 25° NNW 23:21:31 25° NNW 23:23:32 10° NNW
H-2A R/B 4.3 23:46:46 19° NW 23:46:46 19° NW 23:48:29 10° NW
